Regional Weather Roundup
Issued by NWS

Home | Current Version | Previous Version | Text Only | Print | Product List | Glossary Off
Versions: 1 2 3 4 5 6 7 8 9 10 11 12 13 14 15 16 17 18 19 20 21 22 23 24 25 26 27

000
ASUS45 KTFX 240710
RWRMT
MONTANA REGIONAL WEATHER ROUNDUP
NATIONAL WEATHER SERVICE GREAT FALLS MT
100 AM MDT THU MAY 24 2018

NOTE: "FAIR" INDICATES FEW OR NO CLOUDS BELOW 12000 FEET WITH NO
SIGNIFICANT WEATHER AND/OR OBSTRUCTIONS TO VISIBILITY.

MTZ001>007-043-240800-
WEST OF THE DIVIDE

CITY           SKY/WX    TMP DP  RH WIND       PRES   REMARKS
KALISPELL      LGT RAIN  59  57  93 W3        29.87
MISSOULA       MOCLDY    57  54  89 S3        29.90S
BUTTE          LGT RAIN  52  49  89 NE3       30.00R
MULLAN PASS    CLOUDY    48  47  96 S7        29.96R FOG
ANACONDA         N/A     54  50  87 SE7       29.95F
DEER LODGE       N/A     55  54  94 S3        29.96R
HAMILTON         N/A     55  52  88 MISG      29.92S
PLAINS           N/A     57  53  86 CALM      29.89R
RONAN            N/A     57  57 100 CALM      29.89R
$$

MTZ008-052>055-240800-
SOUTHWEST MONTANA

CITY           SKY/WX    TMP DP  RH WIND       PRES   REMARKS
BOZEMAN        MOCLDY    49  47  93 SE6       29.96R
DILLON         FAIR      51  48  89 S8        29.99S
ENNIS          CLEAR     48  46  93 S10       30.04R
W YELLOWSTONE  CLOUDY    45  45 100 CALM      30.08S
TWIN BRIDGES     N/A     52  46  79 E6        29.98R
$$

MTZ009-010-012-014-046-048-049-054-240800-
EAST SLOPES AND CENTRAL MONTANA

CITY           SKY/WX    TMP DP  RH WIND       PRES   REMARKS
CUT BANK       FAIR      53  49  86 SE3       29.83S
GREAT FALLS    FAIR      52  46  80 S9        29.86S
MALMSTROM AFB  FAIR      49  46  90 S7        29.86S
HELENA         CLOUDY    54  50  86 W5        29.90R
AUGUSTA        FAIR      53  47  79 CALM      29.87F
CHOTEAU          N/A     54  48  82 SW6       29.87S
FAIRFIELD      FAIR      53  47  81 CALM      29.85S
RAYNESFORD     FAIR      48  48 100 CALM      29.88F
ULM            FAIR      49  47  92 CALM      29.87R
WHITE SULPHUR    N/A     50  46  87 S10       29.93S
$$

MTZ011-013-016-021-045-047-050-051-240800-
NORTH CENTRAL MONTANA

CITY           SKY/WX    TMP DP  RH WIND       PRES   REMARKS
HAVRE          MOCLDY    55  52  89 CALM      29.81S
LEWISTOWN      CLOUDY    51  50  96 SW5       29.87F
N BAR RANCH    CLOUDY    50  48  93 W3        29.91S
DENTON         FAIR      53  51  93 S6        29.83S
GEYSER         FAIR      51  48  92 SW9       29.87F
GRASS RANGE    FAIR      52  50  92 SW9       29.84S
JUDITH GAP     MOCLDY    51  48  89 W3        29.89F
ROY            FAIR      52  51  95 W7        29.84S
STANFORD       FAIR      49  47  90 W6        29.89S
$$

MTZ017>020-022>027-061-062-240800-
NORTHEAST MONTANA

CITY           SKY/WX    TMP DP  RH WIND       PRES   REMARKS
GLASGOW        FAIR      59  56  89 N6        29.78F
GLENDIVE       FAIR      57  54  89 SE3       29.81S
JORDAN           N/A     58  57  97 CALM      29.82S
MALTA          CLOUDY    59  57  94 CALM      29.79F
SIDNEY         FAIR      55  53  93 W6        29.76F
WOLF POINT     FAIR      60  58  92 W5        29.76F FOG
PLENTYWOOD       N/A     64  63  94 CALM      29.77F
POPLAR           N/A     63  59  88 W3        29.75F
SCOBEY           N/A     61  54  77 CALM      29.79F
$$

MTZ028>42-056>058-240800-
SOUTHCENTRAL AND SOUTHEAST MONTANA

CITY           SKY/WX    TMP DP  RH WIND       PRES   REMARKS
BAKER          FAIR      56  53  90 CALM      29.85F
BILLINGS       MOCLDY    56  55  97 SW9       29.88S
LIVINGSTON     MOCLDY    52  46  80 NW12      29.94R
MILES CITY     FAIR      55  55 100 S5        29.83S
BIG TIMBER     MOCLDY    54  48  82 SW14      29.93S
EKALAKA          N/A     54  45  71 SE5       29.87S
FORSYTH          N/A     57  57 100 SW3       29.83R
HARLOWTON      MOCLDY    53  50  87 W15       29.89F
LAUREL           N/A     55  52  88 SW6       29.90F
$$

REGIONAL REPORTS...DAKOTAS

CITY           SKY/WX    TMP DP  RH WIND       PRES   REMARKS
WILLISTON      FAIR      60  57  89 SW9       29.78F
MINOT          FAIR      67  64  90 E6        29.80F
DICKINSON      FAIR      59  57  93 CALM      29.82S
BEACH          FAIR      57  57 100 SW9       29.85F
CROSBY         FAIR      64  61  88 SE10      29.79F
TIOGA          FAIR      59  59 100 E9        29.80F
WATFORD CITY   FAIR      59  59 100 SE9       29.79F
BISMARCK       FAIR      65  63  93 SE5       29.81F
GRAND FORKS    FAIR      68  61  78 SE13      29.88F
FARGO          FAIR      73  63  70 SE14      29.89F
BUFFALO SD       N/A     59  55  87 SE8       29.80R
RAPID CITY     FAIR      58  46  64 SW10      29.91R
$$

REGIONAL REPORTS...WYOMING/IDAHO/WASHINGTON

CITY           SKY/WX    TMP DP  RH WIND       PRES   REMARKS
GILLETTE       FAIR      54  47  77 S13       29.90R
SHERIDAN       MOCLDY    56  53  90 NW5       29.90S
BUFFALO WY     FAIR      56  47  71 W7        29.95R
CODY           CLOUDY    57  41  55 W7        29.98R
YELLOWSTONE LA   N/A     36  36 100 CALM      30.17R
IDAHO FALLS    MOCLDY    51  51 100 CALM      30.03S
SALMON         CLOUDY    56  53  90 N3        29.98S
BOISE          FAIR      61  55  81 SE3       29.91R
SPOKANE        CLOUDY    60  55  83 S3        29.83R
$$

REGIONAL REPORTS...ALBERTA

CITY           SKY/WX    TMP DP  RH WIND       PRES   REMARKS
CALGARY        PTCLDY    59  41  51 SE5       29.77F
CARDSTON         N/A     54  45  71 CALM        N/A
EDMONTON       CLEAR     57  45  62 E5        29.74S
FORT MCMURRAY  CLEAR     66  45  45 E6        29.72S
HIGH LEVEL     MOCLDY    66  54  63 NW6       29.66R
LETHBRIDGE     CLEAR     55  48  76 SW7       29.77S
LLOYDMINSTER   MOCLDY    68  45  42 SE13      29.79S
MEDICINE HAT   CLEAR     59  52  77 SW7       29.76S
MILK RIVER       N/A     54  50  87 SW5         N/A
PEACE RIVER    CLEAR     68  43  40 SE5       29.66S
PINCHER CREEK    N/A     50  43  76 NW7       29.82S
WATERTON GATE    N/A     59  41  51 SW15G21     N/A
$$

REGIONAL REPORTS...SASKATCHEWAN

CITY           SKY/WX    TMP DP  RH WIND       PRES   REMARKS
CORONACH         N/A     59  57  94 W2          N/A
CYPRESS HILLS    N/A     55  45  67 S6          N/A
ESTEVAN        LGT RAIN  61  59  94 S9        29.80F
MOOSE JAW        N/A     59  57  94 CALM        N/A
PRINCE ALBERT  MOCLDY    68  55  64 S6        29.83S
REGINA         PTCLDY    61  57  88 E7        29.81F
ROCKGLEN         N/A     57  57 100 N5          N/A
SASKATOON      CLOUDY    61  57  88 E3        29.83S
SWIFT CURRENT  PTCLDY    55  54  94 SE8       29.82R
VAL MARIE        N/A     55  50  82 NE6         N/A
$$




USA.gov is the U.S. government's official web portal to all federal, state and local government web resources and services.